TimeEDT,TemperatureF,Dew PointF,Humidity,Sea Level PressureIn,VisibilityMPH,Wind Direction,Wind SpeedMPH,Gust SpeedMPH,PrecipitationIn,Events,Conditions,WindDirDegrees,DateUTC
12:53 AM,75.0,70.0,84,29.99,10.0,WSW,4.6,-,N/A,,Clear,240,2013-07-08 04:53:00
1:53 AM,73.0,70.0,90,29.99,10.0,Calm,Calm,-,N/A,,Clear,0,2013-07-08 05:53:00
2:53 AM,71.1,68.0,90,29.99,10.0,Calm,Calm,-,N/A,,Clear,0,2013-07-08 06:53:00
3:53 AM,70.0,66.9,90,29.98,10.0,Calm,Calm,-,N/A,,Clear,0,2013-07-08 07:53:00
4:53 AM,72.0,68.0,87,29.99,10.0,SW,5.8,-,N/A,,Clear,220,2013-07-08 08:53:00
5:53 AM,72.0,68.0,87,30.01,10.0,SW,6.9,-,N/A,,Clear,220,2013-07-08 09:53:00
6:53 AM,73.9,69.1,85,30.01,10.0,SW,6.9,-,N/A,,Clear,230,2013-07-08 10:53:00
7:53 AM,75.0,69.1,82,30.03,10.0,SW,5.8,-,N/A,,Clear,220,2013-07-08 11:53:00
8:53 AM,79.0,69.1,72,30.03,10.0,SW,5.8,-,N/A,,Clear,220,2013-07-08 12:53:00
9:53 AM,82.0,69.1,65,30.03,10.0,SW,6.9,-,N/A,,Clear,230,2013-07-08 13:53:00
10:53 AM,84.9,70.0,61,30.04,10.0,SSW,10.4,-,N/A,,Clear,210,2013-07-08 14:53:00
11:53 AM,82.9,68.0,60,30.04,10.0,SSW,11.5,-,N/A,,Clear,210,2013-07-08 15:53:00
12:53 PM,82.9,68.0,60,30.04,10.0,SW,12.7,23.0,N/A,,Clear,220,2013-07-08 16:53:00
1:53 PM,84.0,68.0,58,30.03,10.0,SW,15.0,21.9,N/A,,Clear,230,2013-07-08 17:53:00
2:53 PM,84.9,69.1,59,30.03,10.0,SW,12.7,20.7,N/A,,Clear,220,2013-07-08 18:53:00
3:53 PM,82.9,69.1,63,30.02,10.0,SW,11.5,-,N/A,,Clear,220,2013-07-08 19:53:00
4:53 PM,82.0,69.1,65,30.02,10.0,SW,9.2,20.7,N/A,,Clear,220,2013-07-08 20:53:00
5:53 PM,81.0,69.1,67,30.01,10.0,SW,16.1,24.2,N/A,,Clear,230,2013-07-08 21:53:00
6:53 PM,79.0,68.0,69,30.01,10.0,SW,9.2,20.7,N/A,,Clear,220,2013-07-08 22:53:00
7:53 PM,75.9,69.1,79,30.02,10.0,WSW,11.5,-,N/A,,Clear,240,2013-07-08 23:53:00
8:53 PM,73.9,69.1,85,30.03,10.0,SW,9.2,-,N/A,,Clear,230,2013-07-09 00:53:00
9:53 PM,73.0,69.1,87,30.06,10.0,SSW,5.8,-,N/A,,Clear,210,2013-07-09 01:53:00
10:53 PM,73.0,68.0,84,30.05,10.0,SW,5.8,-,N/A,,Clear,220,2013-07-09 02:53:00
11:53 PM,73.0,68.0,84,30.05,10.0,SW,10.4,-,N/A,,Clear,230,2013-07-09 03:53:00